Previsão horária em Abdulino

Hoje, 11 Abril, Domingo

Tempo Temperatura Precipitação Vento Pressão Humidade
00:00 +4°C° 0 mm 8 m/s 755 mmHg 90%
01:00 +4°C° 0 mm 8 m/s 755 mmHg 90%
02:00 +2°C° 0 mm 8 m/s 755 mmHg 86%
03:00 +2°C° 0 mm 8 m/s 755 mmHg 82%
04:00 +3°C° 0 mm 7 m/s 755 mmHg 78%
05:00 +3°C° 0 mm 7 m/s 756 mmHg 78%
06:00 +3°C° 0 mm 7 m/s 756 mmHg 79%
07:00 +3°C° 0 mm 6 m/s 756 mmHg 79%
08:00 +4°C° 0 mm 7 m/s 756 mmHg 76%
09:00 +5°C° 0 mm 7 m/s 756 mmHg 74%
10:00 +8°C° 0 mm 7 m/s 756 mmHg 71%
11:00 +9°C° 0 mm 7 m/s 757 mmHg 67%
12:00 +11°C° 0 mm 7 m/s 757 mmHg 63%
13:00 +14°C° 0 mm 6 m/s 757 mmHg 59%
14:00 +14°C° 0 mm 6 m/s 757 mmHg 57%
15:00 +15°C° 0 mm 5 m/s 757 mmHg 56%
16:00 +16°C° 0 mm 5 m/s 757 mmHg 55%
17:00 +14°C° 0 mm 4 m/s 757 mmHg 59%
18:00 +13°C° 0 mm 3 m/s 757 mmHg 62%
19:00 +13°C° 0 mm 2 m/s 757 mmHg 66%
20:00 +12°C° 0 mm 2 m/s 758 mmHg 69%
21:00 +10°C° 0 mm 2 m/s 758 mmHg 72%
22:00 +10°C° 0 mm 3 m/s 758 mmHg 74%
23:00 +9°C° 0 mm 2 m/s 758 mmHg 77%

Amanhã, 12 Abril, Segunda-feira

Tempo Temperatura Precipitação Vento Pressão Humidade
00:00 +8°C° 0 mm 2 m/s 758 mmHg 80%
01:00 +8°C° 0 mm 2 m/s 758 mmHg 83%
02:00 +7°C° 0 mm 2 m/s 759 mmHg 84%
03:00 +7°C° 0 mm 2 m/s 759 mmHg 85%
04:00 +8°C° 0 mm 1 m/s 759 mmHg 86%
05:00 +8°C° 0 mm 1 m/s 759 mmHg 85%
06:00 +8°C° 0 mm 1 m/s 760 mmHg 84%
07:00 +8°C° 0 mm 1 m/s 760 mmHg 84%
08:00 +9°C° 0 mm 1 m/s 760 mmHg 78%
09:00 +10°C° 0 mm 2 m/s 760 mmHg 73%
10:00 +12°C° 0 mm 2 m/s 760 mmHg 68%
11:00 +14°C° 0 mm 2 m/s 760 mmHg 64%
12:00 +15°C° 0 mm 2 m/s 760 mmHg 60%
13:00 +16°C° 0 mm 2 m/s 760 mmHg 55%
14:00 +17°C° 0 mm 2 m/s 760 mmHg 53%
15:00 +17°C° 0 mm 2 m/s 760 mmHg 51%
16:00 +18°C° 0 mm 2 m/s 760 mmHg 49%
17:00 +17°C° 0 mm 2 m/s 760 mmHg 54%
18:00 +16°C° 0 mm 2 m/s 760 mmHg 59%
19:00 +15°C° 0 mm 2 m/s 760 mmHg 63%
20:00 +14°C° 0 mm 2 m/s 760 mmHg 66%
21:00 +13°C° 0 mm 2 m/s 760 mmHg 69%
22:00 +12°C° 0 mm 2 m/s 760 mmHg 72%
23:00 +10°C° 0 mm 2 m/s 760 mmHg 73%

Depois de amanhã, 13 Abril, Terça-feira

Tempo Temperatura Precipitação Vento Pressão Humidade
00:00 +10°C° 0 mm 2 m/s 760 mmHg 74%
01:00 +9°C° 0 mm 2 m/s 760 mmHg 76%
02:00 +9°C° 0 mm 2 m/s 760 mmHg 77%
03:00 +8°C° 0 mm 2 m/s 760 mmHg 78%
04:00 +9°C° 0 mm 1 m/s 760 mmHg 79%
05:00 +8°C° 0 mm 2 m/s 761 mmHg 78%
06:00 +8°C° 0 mm 2 m/s 761 mmHg 76%
07:00 +8°C° 0 mm 2 m/s 761 mmHg 75%
08:00 +9°C° 0 mm 3 m/s 761 mmHg 65%
09:00 +11°C° 0 mm 3 m/s 761 mmHg 54%
10:00 +12°C° 0 mm 4 m/s 761 mmHg 44%
11:00 +13°C° 0 mm 4 m/s 761 mmHg 40%
12:00 +15°C° 0 mm 4 m/s 761 mmHg 36%
13:00 +17°C° 0 mm 4 m/s 760 mmHg 33%
14:00 +17°C° 0 mm 4 m/s 760 mmHg 31%
15:00 +17°C° 0 mm 4 m/s 760 mmHg 29%
16:00 +18°C° 0 mm 4 m/s 760 mmHg 27%
17:00 +17°C° 0 mm 3 m/s 759 mmHg 32%
18:00 +16°C° 0 mm 3 m/s 759 mmHg 37%
19:00 +14°C° 0 mm 2 m/s 759 mmHg 42%
20:00 +13°C° 0 mm 2 m/s 759 mmHg 44%
21:00 +12°C° 0 mm 2 m/s 759 mmHg 47%
22:00 +10°C° 0 mm 2 m/s 759 mmHg 50%
23:00 +10°C° 0 mm 2 m/s 758 mmHg 52%

14 Abril, Quarta-feira

Tempo Temperatura Precipitação Vento Pressão Humidade
00:00 +9°C° 0 mm 2 m/s 758 mmHg 55%
01:00 +9°C° 0 mm 2 m/s 758 mmHg 58%
02:00 +8°C° 0 mm 2 m/s 758 mmHg 64%
03:00 +8°C° 0 mm 2 m/s 758 mmHg 70%
04:00 +7°C° 0 mm 2 m/s 758 mmHg 76%
05:00 +7°C° 0 mm 2 m/s 758 mmHg 81%
06:00 +8°C° 0 mm 1 m/s 758 mmHg 85%
07:00 +8°C° 0 mm 1 m/s 758 mmHg 90%
08:00 +9°C° 0 mm 2 m/s 758 mmHg 84%
09:00 +12°C° 0 mm 2 m/s 757 mmHg 79%
10:00 +13°C° 0 mm 2 m/s 757 mmHg 73%
11:00 +15°C° 0 mm 2 m/s 757 mmHg 66%
12:00 +16°C° 0 mm 2 m/s 756 mmHg 58%
13:00 +17°C° 0 mm 2 m/s 756 mmHg 51%
14:00 +18°C° 0 mm 2 m/s 755 mmHg 48%
15:00 +18°C° 0 mm 2 m/s 755 mmHg 46%
16:00 +19°C° 0 mm 2 m/s 755 mmHg 43%
17:00 +19°C° 0 mm 1 m/s 754 mmHg 47%
18:00 +18°C° 0 mm 1 m/s 754 mmHg 50%
19:00 +15°C° 0 mm 0 m/s 753 mmHg 54%
20:00 +15°C° 0 mm 1 m/s 753 mmHg 57%
21:00 +14°C° 0 mm 1 m/s 753 mmHg 59%
22:00 +13°C° 0 mm 1 m/s 753 mmHg 62%
23:00 +13°C° 0 mm 1 m/s 753 mmHg 64%

15 Abril, Quinta-feira

Tempo Temperatura Precipitação Vento Pressão Humidade
00:00 +12°C° 0 mm 1 m/s 752 mmHg 66%
01:00 +11°C° 0 mm 1 m/s 752 mmHg 68%
02:00 +11°C° 0 mm 1 m/s 752 mmHg 70%
03:00 +10°C° 0 mm 1 m/s 752 mmHg 71%
04:00 +10°C° 0 mm 1 m/s 752 mmHg 73%
05:00 +10°C° 0 mm 1 m/s 751 mmHg 72%
06:00 +10°C° 0 mm 1 m/s 751 mmHg 72%
07:00 +10°C° 0 mm 1 m/s 751 mmHg 72%
08:00 +12°C° 0 mm 1 m/s 751 mmHg 66%
09:00 +14°C° 0 mm 1 m/s 751 mmHg 61%
10:00 +15°C° 0 mm 2 m/s 750 mmHg 56%
11:00 +16°C° 0 mm 2 m/s 750 mmHg 53%
12:00 +17°C° 0 mm 2 m/s 750 mmHg 51%
13:00 +18°C° 0 mm 2 m/s 749 mmHg 48%
14:00 +19°C° 0 mm 2 m/s 749 mmHg 46%
15:00 +19°C° 0 mm 2 m/s 748 mmHg 44%
16:00 +19°C° 0 mm 2 m/s 748 mmHg 42%
17:00 +18°C° 0 mm 2 m/s 748 mmHg 43%
18:00 +18°C° 0 mm 2 m/s 747 mmHg 45%
19:00 +17°C° 0 mm 2 m/s 747 mmHg 46%
20:00 +16°C° 0 mm 1 m/s 747 mmHg 47%
21:00 +15°C° 0 mm 1 m/s 746 mmHg 47%
22:00 +14°C° 0 mm 1 m/s 746 mmHg 47%
23:00 +13°C° 0 mm 1 m/s 746 mmHg 50%

16 Abril, Sexta-feira

Tempo Temperatura Precipitação Vento Pressão Humidade
00:00 +12°C° 0 mm 2 m/s 745 mmHg 53%
01:00 +12°C° 0 mm 2 m/s 745 mmHg 56%
02:00 +10°C° 0 mm 2 m/s 745 mmHg 61%
03:00 +10°C° 0 mm 2 m/s 744 mmHg 65%
04:00 +9°C° 0 mm 2 m/s 744 mmHg 70%
05:00 +9°C° 0 mm 2 m/s 744 mmHg 71%
06:00 +9°C° 0 mm 2 m/s 743 mmHg 71%
07:00 +9°C° 0 mm 2 m/s 743 mmHg 72%
08:00 +12°C° 0 mm 2 m/s 743 mmHg 67%
09:00 +13°C° 0 mm 3 m/s 742 mmHg 62%
10:00 +14°C° 0 mm 3 m/s 742 mmHg 57%
11:00 +15°C° 0.1 mm 4 m/s 742 mmHg 54%
12:00 +16°C° 0.1 mm 5 m/s 741 mmHg 51%
13:00 +17°C° 0.1 mm 6 m/s 741 mmHg 48%
14:00 +17°C° 0.3 mm 5 m/s 740 mmHg 51%
15:00 +17°C° 0.3 mm 4 m/s 740 mmHg 54%
16:00 +17°C° 0.3 mm 3 m/s 739 mmHg 57%
17:00 +14°C° 1 mm 4 m/s 739 mmHg 66%
18:00 +13°C° 1 mm 4 m/s 739 mmHg 74%
19:00 +11°C° 1 mm 4 m/s 739 mmHg 83%
20:00 +9°C° 0.5 mm 5 m/s 739 mmHg 85%
21:00 +7°C° 0.5 mm 6 m/s 739 mmHg 87%
22:00 +5°C° 0.5 mm 7 m/s 740 mmHg 89%
23:00 +4°C° 0.3 mm 6 m/s 740 mmHg 91%
Mostrar mais